Theta_e
285 284 284 283 283 283 283 284 285 286 287 287 286 286 285 286 283 279 278 279 279 280 280 279 280 280 281 281 281 280 282 279 278 280 280 280 279 278 278 280 282 284 284 286 288 289 290 291 291 291 291 291 291 290 290 290 290 290 290 289 289 288 287 287 287 287 288 288 289 289 289 290 290 290
284 284 283 283 282 283 283 283 284 285 285 286 286 286 286 287 286 284 281 280 281 279 280 280 279 279 280 280 280 280 281 278 278 279 279 278 277 277 277 278 280 282 283 283 285 286 288 289 290 290 290 290 290 290 289 289 289 289 288 288 287 286 285 286 286 287 287 288 288 289 289 289 289 290
284 283 283 283 281 282 282 282 282 284 284 284 284 284 285 285 287 286 284 280 281 281 278 279 280 279 279 280 279 280 280 278 278 278 278 277 276 276 276 276 278 280 281 282 282 283 285 286 288 288 288 289 289 288 289 288 288 287 287 285 284 284 284 285 285 286 287 287 287 287 288 288 289 289
283 282 281 281 281 281 281 281 282 282 283 283 283 284 284 284 285 286 285 282 278 280 280 279 279 279 279 279 279 279 279 278 277 278 277 276 275 276 276 275 275 278 279 280 280 281 281 283 284 286 286 286 287 287 287 286 285 285 284 283 283 283 284 285 285 286 286 286 286 287 287 287 288 288
282 282 281 280 281 281 281 281 281 281 282 283 283 283 283 282 283 284 284 280 277 278 280 279 278 279 279 278 278 278 278 277 277 277 277 276 276 276 276 276 275 276 278 278 279 279 279 280 281 282 282 283 284 284 283 283 282 281 281 281 281 282 283 284 284 285 285 285 286 286 286 286 287 287
282 281 280 280 280 281 281 281 281 281 281 282 281 281 282 281 282 284 284 281 278 276 277 278 279 278 279 277 279 277 277 277 277 276 276 276 275 275 275 275 275 274 276 277 277 277 278 278 279 279 280 280 280 280 280 279 280 280 280 280 281 281 282 283 283 283 284 284 284 285 285 285 286 287
281 281 280 279 280 281 281 281 281 281 281 281 281 281 281 281 281 282 283 282 279 277 276 278 277 277 278 277 277 277 277 277 276 275 275 274 275 275 275 275 274 274 275 275 276 276 276 277 277 277 277 278 278 278 278 279 279 279 279 279 280 280 281 281 282 282 282 283 283 283 283 284 285 286
280 280 279 279 280 280 280 280 280 280 281 281 281 281 281 281 280 281 282 282 281 278 276 277 277 278 277 277 277 277 276 276 276 275 274 275 274 274 275 274 273 273 273 274 274 274 275 275 276 276 276 277 276 276 277 277 277 277 277 278 279 280 280 281 281 281 282 282 282 282 282 283 283 285
281 280 280 280 280 280 280 279 279 280 280 281 280 280 280 280 280 280 280 280 281 279 277 276 278 278 277 277 276 276 275 275 275 274 273 274 274 274 274 274 273 272 272 273 273 273 273 274 274 275 275 275 275 275 275 275 275 275 276 277 279 280 280 280 280 280 281 281 281 281 281 281 282 283
281 281 280 280 280 280 279 279 279 280 280 280 280 280 280 280 279 279 279 279 279 279 278 277 276 276 275 274 275 276 275 274 273 273 273 272 273 273 273 273 272 272 271 271 271 271 272 272 272 273 274 274 274 274 274 274 273 274 276 277 278 279 279 279 279 280 280 280 280 281 281 281 281 281
281 281 280 280 280 280 280 279 279 279 279 279 279 280 279 279 278 278 278 278 278 278 277 277 276 275 275 275 274 274 275 274 273 272 272 272 273 272 272 271 272 272 271 272 271 271 270 271 270 272 272 272 273 273 273 272 272 274 276 277 278 279 279 279 279 279 279 280 280 280 280 280 281 281
281 281 280 280 280 280 280 280 280 280 279 279 279 279 279 279 278 277 277 277 277 277 276 276 275 275 274 274 275 274 273 272 272 272 271 271 271 272 272 272 270 271 270 270 270 270 270 270 270 270 270 271 272 271 271 271 271 274 276 277 278 278 278 278 279 279 279 279 280 279 280 280 280 280
280 280 280 280 280 280 280 281 281 280 280 280 279 279 279 278 278 278 277 277 277 277 276 275 275 274 273 274 273 272 272 272 272 272 271 270 271 271 271 272 271 270 268 269 269 269 269 268 269 269 269 269 269 269 270 270 271 274 275 276 277 277 278 278 278 279 279 279 279 279 279 279 280 280
279 279 279 280 280 279 279 280 280 280 280 280 280 279 279 278 278 278 277 277 277 277 275 275 274 273 273 273 274 273 273 272 271 270 270 270 271 270 270 271 270 269 268 267 268 269 269 268 268 269 268 269 269 268 268 269 271 273 275 276 276 276 277 277 278 278 278 278 279 279 279 279 279 279
278 278 278 279 279 279 279 279 280 280 280 279 279 279 279 279 279 278 277 277 277 276 276 275 275 274 274 274 274 273 272 271 270 270 271 270 270 269 269 269 270 270 267 266 267 268 269 268 267 268 268 268 268 268 268 271 272 273 275 275 275 276 277 277 277 277 278 278 278 278 278 279 279 279
278 278 277 278 278 279 279 279 279 280 280 279 279 279 279 278 278 279 279 278 276 276 276 275 274 274 274 274 273 272 271 270 270 270 270 270 269 268 268 268 268 269 268 265 266 267 269 268 267 267 268 268 268 267 269 270 272 273 274 274 275 275 276 276 277 277 277 277 277 278 278 278 278 278
278 277 277 277 278 278 279 279 279 279 279 279 279 279 278 278 278 278 278 278 278 278 276 275 274 274 274 273 273 272 271 271 269 270 269 269 269 268 267 268 267 268 267 266 265 265 268 268 266 266 268 268 267 267 268 270 272 272 273 273 274 275 275 275 276 276 276 277 277 277 277 278 278 278
278 277 277 277 277 278 279 279 279 279 279 279 278 278 278 278 278 278 278 277 276 277 276 275 274 275 274 273 272 272 272 270 270 270 269 269 268 268 267 267 266 267 267 264 264 264 268 267 266 265 267 268 267 267 268 270 271 271 272 273 273 274 274 274 275 275 276 276 276 276 277 277 277 277
278 278 278 278 278 278 278 279 279 279 279 278 278 278 277 278 278 277 277 277 276 276 276 275 275 274 273 273 272 272 272 271 270 270 269 269 268 267 266 266 266 266 267 264 264 263 266 266 264 265 266 266 265 266 268 269 270 270 271 272 272 273 273 273 274 275 275 275 275 276 276 276 276 276
278 278 278 278 278 278 278 279 280 280 280 279 278 277 277 278 278 278 278 278 277 276 276 275 275 273 273 273 272 272 271 271 270 269 268 267 266 265 264 264 266 264 266 265 263 262 263 266 264 264 265 265 264 265 266 267 269 269 271 271 271 271 272 272 273 274 274 274 274 274 275 275 275 274
278 278 278 277 277 277 278 280 281 281 280 279 278 277 277 277 277 276 277 278 277 276 275 275 275 274 274 274 273 273 272 271 270 268 265 264 265 264 263 265 264 265 264 264 264 262 261 264 263 262 263 263 262 263 265 266 267 269 270 269 269 269 270 271 272 273 273 273 273 274 274 274 274 272
277 277 278 278 277 277 278 280 281 282 280 278 277 277 276 276 274 274 274 274 275 276 275 275 274 274 274 274 273 273 273 271 270 267 265 266 266 264 264 263 265 264 264 263 264 261 262 263 262 260 260 262 263 263 265 265 265 267 266 267 268 267 269 270 271 272 272 272 272 272 273 273 272 268
277 277 278 278 278 278 278 281 282 282 280 278 277 277 275 274 274 274 274 273 273 273 272 272 272 272 273 273 272 272 273 271 269 268 267 267 265 263 264 263 262 262 263 262 264 260 261 260 261 259 258 260 264 264 263 263 262 263 263 263 263 266 268 268 269 269 270 270 271 271 271 271 271 266
276 276 276 277 279 279 280 281 282 282 282 278 277 276 275 274 273 275 274 274 273 272 271 271 271 270 270 271 270 270 270 269 268 267 266 266 265 264 263 262 262 262 263 263 264 260 260 260 258 260 258 257 259 262 262 261 262 262 262 262 262 264 265 265 265 267 268 269 269 269 270 269 270 266
275 275 275 276 278 280 280 281 282 282 282 280 277 276 276 276 276 276 273 273 273 272 271 269 267 266 267 267 268 268 268 267 266 266 266 265 266 264 263 262 261 261 263 263 263 260 258 258 256 258 257 257 257 257 260 260 261 261 262 262 261 262 262 261 262 262 265 266 267 267 267 269 270 267
276 276 276 276 277 280 280 281 281 282 282 282 277 276 278 278 278 274 274 273 272 271 268 266 265 264 264 264 264 265 265 265 265 265 265 264 264 265 264 263 262 261 261 262 262 260 257 256 257 256 257 256 257 258 257 258 260 261 262 262 261 261 261 260 261 261 262 262 262 263 265 269 268 268
276 277 276 276 278 279 280 280 281 282 283 282 279 279 279 278 278 276 273 272 270 268 266 265 264 263 263 263 263 263 263 264 263 264 264 264 263 263 263 263 263 262 262 261 260 259 258 256 257 255 255 256 255 256 256 256 259 261 260 261 261 261 261 261 260 260 260 261 261 264 265 265 266 266
276 276 276 276 278 279 280 281 281 282 282 281 282 280 279 279 278 274 272 270 269 267 266 264 264 263 263 263 263 263 263 263 262 263 262 262 262 261 261 260 259 260 259 260 259 259 257 256 256 256 255 254 253 254 255 258 258 258 258 259 259 260 261 260 259 259 260 260 260 260 260 261 262 262
277 277 278 278 278 279 280 281 281 281 281 282 282 281 280 278 276 273 271 269 268 266 265 264 265 263 263 264 264 264 263 262 261 260 259 259 258 258 258 257 257 256 256 257 257 258 257 256 255 255 254 254 253 254 255 255 255 255 257 256 256 259 259 259 259 259 259 259 259 259 259 260 260 261
279 279 279 278 278 278 279 279 279 279 279 281 281 281 280 277 276 274 270 268 266 265 265 265 265 264 264 264 263 262 262 260 259 258 257 256 255 255 255 256 257 257 256 255 256 257 257 256 255 254 253 254 254 253 254 253 254 256 257 256 257 258 260 260 259 259 259 258 259 259 259 260 260 261
279 278 278 278 278 278 278 278 279 279 280 279 279 280 280 278 277 273 271 269 267 266 265 265 265 265 264 263 260 260 260 260 259 258 257 257 256 255 256 256 257 257 257 254 255 255 256 255 255 254 252 253 253 253 253 254 253 253 255 257 257 255 258 258 258 259 259 258 258 259 259 260 261 262
279 278 278 278 277 277 277 277 277 278 278 278 278 278 279 278 277 273 272 271 268 268 267 266 265 263 262 260 260 260 259 260 258 258 257 257 256 255 255 255 256 257 257 255 254 254 253 253 253 254 253 252 252 253 254 254 253 253 254 256 257 258 258 258 258 258 258 258 257 258 259 260 260 261
279 278 277 276 276 276 275 275 275 276 277 277 278 277 278 278 276 272 271 269 267 267 266 265 264 262 261 260 260 259 259 258 257 257 256 256 256 255 255 256 258 257 256 256 255 254 253 253 253 252 253 253 252 252 251 251 253 255 255 257 258 257 258 259 259 258 257 257 257 257 258 260 261 262
278 276 275 275 275 275 275 274 274 275 275 276 276 276 277 276 274 272 271 270 268 267 267 266 264 262 261 260 259 258 258 257 256 256 256 255 255 254 254 255 256 257 256 256 256 255 254 253 252 252 252 251 252 252 251 251 253 256 259 258 257 257 258 259 258 257 256 256 256 256 258 259 261 263
278 275 275 275 275 275 275 274 274 274 274 275 275 275 275 275 272 270 271 270 268 267 267 266 264 262 260 260 259 258 258 256 255 254 255 254 254 254 255 255 256 256 255 254 255 254 253 253 253 254 255 253 252 252 254 253 252 255 257 258 258 258 257 258 257 257 256 257 259 258 258 259 260 262
279 276 275 275 275 275 274 275 275 275 275 275 275 275 274 272 271 270 270 270 269 268 267 265 263 262 261 261 259 258 257 256 255 254 254 253 253 254 255 255 256 256 255 255 255 254 252 252 253 253 255 257 258 259 257 259 257 254 255 256 258 257 257 256 256 256 258 258 259 258 257 257 259 260
279 278 276 276 276 275 274 275 275 275 275 275 275 275 272 270 271 270 270 269 269 267 266 264 263 262 261 261 258 257 256 256 255 254 253 253 253 253 253 253 253 253 253 254 253 252 252 252 252 253 254 256 258 257 259 257 260 261 256 256 256 256 255 255 255 256 258 259 258 259 258 258 258 260
277 278 277 277 276 276 276 276 275 275 275 275 275 275 273 271 271 270 270 269 269 267 266 266 264 263 261 261 258 257 256 256 256 255 254 254 253 253 253 254 253 252 253 253 252 252 252 252 252 253 254 255 256 257 257 257 256 259 262 258 255 255 255 255 256 256 257 259 258 259 259 258 259 260
277 278 278 277 277 277 276 276 275 275 275 275 275 274 272 271 270 269 268 268 268 267 265 265 264 264 261 260 259 257 256 255 255 255 255 254 254 253 253 254 254 253 252 252 251 251 251 251 252 252 254 254 255 255 254 252 253 256 259 261 257 254 255 256 256 257 257 257 258 259 260 261 262 266
277 278 279 278 278 278 277 277 276 276 275 275 275 274 271 270 269 268 268 266 267 267 265 265 264 264 262 259 260 258 257 256 256 256 255 254 254 254 254 254 254 253 252 252 252 252 251 251 252 253 253 254 254 252 251 251 251 251 252 255 261 259 257 258 257 257 256 258 258 257 257 259 259 260
277 277 278 279 279 278 277 277 277 276 276 275 275 274 272 271 270 268 267 266 266 266 264 265 264 264 260 259 259 258 257 256 257 256 255 255 254 253 253 253 253 253 253 252 252 253 253 254 253 253 251 251 251 251 251 251 253 257 258 259 261 262 262 262 259 258 257 258 258 257 257 257 257 258
278 277 278 279 279 279 278 277 277 276 275 275 275 274 273 271 270 269 267 266 266 266 265 264 264 263 261 259 259 259 258 257 256 256 255 255 254 252 251 252 253 252 253 253 254 254 253 250 250 250 250 250 249 250 251 253 254 255 256 256 257 260 261 261 262 263 261 260 258 257 257 258 258 257
278 278 278 278 279 279 278 277 277 276 276 275 274 274 273 271 270 269 268 266 265 265 265 264 264 263 261 259 258 259 259 258 257 256 255 255 254 253 251 251 252 253 252 255 255 252 250 249 249 249 250 250 250 251 251 253 254 253 253 255 256 257 258 260 261 262 263 263 263 261 260 258 257 255
278 278 278 278 278 278 278 278 277 277 276 275 274 273 272 271 269 269 268 267 265 264 264 264 263 263 261 259 258 259 259 258 258 257 255 255 254 254 253 252 252 253 253 253 253 251 250 250 250 250 250 250 250 250 250 251 252 253 254 254 254 254 255 257 258 260 261 261 262 263 264 264 264 265
278 278 278 278 278 279 278 278 277 276 276 275 274 273 272 271 270 269 268 267 266 264 264 263 263 262 261 258 258 257 258 258 259 258 256 254 253 253 254 253 252 252 252 252 252 251 250 250 250 250 250 251 251 251 251 251 252 252 252 252 252 254 255 256 255 256 256 257 261 263 264 265 265 265
Wind_Speed
6 5 5 4 4 3 2 2 2 2 2 4 6 6 6 5 8 8 7 8 7 7 7 4 4 4 2 3 3 2 3 4 3 3 2 3 3 9 10 11 12 12 13 13 14 14 14 15 16 16 16 16 16 16 17 18 18 19 20 20 21 21 20 20 20 21 21 22 23 24 25 25 26 26
6 5 5 5 4 4 3 3 2 2 3 4 4 3 1 1 4 6 6 6 6 7 7 4 4 5 4 3 3 2 3 5 1 2 2 3 4 9 7 11 12 12 12 13 14 14 15 16 16 16 16 16 17 17 19 20 19 19 20 20 21 20 20 20 20 21 22 23 23 24 24 25 25 26
6 6 7 5 5 4 4 4 3 3 4 3 3 2 1 0 1 4 5 7 4 7 7 5 4 6 5 4 3 3 3 4 2 1 2 3 6 7 4 8 10 11 12 13 14 14 15 16 16 16 16 16 17 19 19 19 19 20 21 20 20 19 19 20 20 21 22 23 24 24 25 25 26 26
5 6 7 5 5 5 5 4 4 4 3 3 3 2 2 1 1 2 4 5 7 5 5 6 6 6 5 4 3 4 3 4 2 1 2 3 5 3 3 3 8 11 12 12 13 14 14 15 15 15 16 17 19 19 19 19 20 20 20 19 19 19 19 20 21 22 22 23 24 24 25 25 26 27
6 6 7 6 6 5 6 5 4 4 4 4 3 3 3 3 2 2 4 8 8 5 4 5 5 6 5 4 4 3 3 2 2 0 2 3 3 3 2 2 4 9 11 11 12 12 14 14 14 15 15 16 17 18 18 19 19 19 19 19 18 18 20 21 21 22 22 23 23 24 25 26 27 27
5 7 8 7 7 5 5 6 5 5 5 4 5 4 4 4 3 2 4 7 8 8 6 5 5 5 5 4 5 3 3 3 2 0 1 2 2 2 3 3 2 7 10 10 10 11 13 13 14 14 15 16 17 17 18 18 19 19 18 18 18 19 20 21 21 22 22 22 23 24 25 26 26 27
8 8 7 8 7 5 6 6 5 5 5 5 5 5 4 5 4 3 3 7 8 9 7 6 6 6 5 4 4 4 3 2 1 1 1 2 2 1 2 3 2 5 8 8 9 10 12 13 14 13 14 16 17 17 18 18 18 18 18 18 19 20 20 20 21 21 22 22 23 24 25 26 26 27
9 9 8 8 8 7 8 7 6 5 5 5 6 6 5 5 5 4 4 4 6 8 8 7 6 6 6 4 4 3 3 4 3 2 1 2 3 2 2 2 2 3 7 8 8 9 11 13 13 13 14 15 16 16 17 18 17 17 17 18 19 20 20 20 21 21 22 22 23 24 25 26 27 27
10 10 9 10 9 9 8 8 7 7 8 6 6 6 6 6 5 4 4 5 6 8 8 7 6 5 5 4 4 5 4 5 4 4 3 2 3 3 3 2 2 4 7 7 6 8 10 12 12 12 14 15 15 16 17 17 16 16 17 18 19 20 20 20 21 22 22 22 23 24 25 25 26 27
9 9 10 10 10 10 10 9 8 8 9 7 7 8 7 6 6 6 6 5 7 7 7 8 8 7 6 6 6 5 4 4 5 5 5 3 3 3 3 2 1 2 3 3 4 5 7 9 10 10 12 13 14 16 16 15 15 15 17 19 20 20 20 21 22 22 23 23 24 24 25 25 26 27
9 9 9 10 10 10 10 10 10 10 10 7 8 8 8 8 8 8 7 7 8 7 8 7 7 7 6 6 6 6 4 3 3 3 4 4 3 3 3 3 1 1 3 5 6 6 7 8 6 8 9 10 13 15 15 14 14 15 18 20 20 20 21 22 23 23 23 23 24 24 25 25 26 27
9 9 9 9 10 10 10 10 10 10 9 8 9 8 8 9 9 8 8 8 7 8 7 7 7 6 6 5 4 5 5 5 5 4 2 3 3 3 3 3 2 2 3 4 5 3 3 5 6 6 6 9 14 14 13 13 13 16 18 20 20 20 21 22 23 23 23 24 24 25 25 26 27 27
9 9 9 9 9 10 10 11 8 8 7 8 9 8 8 9 8 8 8 7 7 7 7 7 6 6 6 6 6 6 6 6 3 4 3 2 3 2 3 2 1 1 3 4 5 4 4 5 5 5 5 6 10 10 12 9 13 17 19 19 19 20 22 23 23 24 24 24 25 25 25 26 26 27
9 9 8 8 11 10 9 10 9 9 8 6 5 8 9 9 8 8 8 8 7 7 8 7 8 7 7 7 7 6 5 4 3 3 4 3 2 2 4 3 2 2 3 5 6 4 3 4 5 5 5 6 7 7 7 7 12 16 19 19 19 21 23 24 24 25 24 24 25 25 25 26 27 28
10 9 8 7 9 9 9 8 10 10 10 6 5 8 8 7 7 8 8 7 7 7 6 6 7 7 7 7 6 5 5 4 4 3 3 2 2 1 1 1 1 4 6 5 6 5 3 3 5 5 5 6 6 6 7 15 16 18 18 19 20 22 23 23 24 25 24 24 24 25 26 26 27 27
9 10 9 8 7 8 10 9 10 10 11 9 8 8 7 7 3 3 4 6 7 7 6 6 7 6 6 6 6 5 5 4 4 4 3 3 2 1 1 2 2 4 7 6 6 6 3 3 4 5 5 5 5 7 12 15 15 16 17 18 20 22 23 24 24 24 24 25 25 25 26 26 27 27
10 9 9 8 7 7 13 10 10 10 10 10 10 9 9 7 6 5 2 2 3 6 5 6 6 6 5 6 6 6 6 5 4 4 4 4 3 2 1 1 2 4 6 5 5 6 5 3 5 5 4 4 6 8 9 13 14 15 16 18 20 22 22 23 24 24 25 24 24 25 25 26 26 27
10 10 10 10 9 10 12 12 12 12 11 11 10 10 9 8 10 10 9 8 6 5 5 6 6 6 5 4 4 7 6 6 5 4 4 4 3 3 1 2 3 4 3 3 5 5 3 5 6 6 5 5 7 7 10 14 13 13 15 18 21 22 22 24 24 24 24 24 24 25 26 26 27 28
10 10 9 10 11 12 14 13 15 14 14 13 11 11 11 10 10 9 9 8 7 7 5 5 5 5 4 4 7 7 6 5 2 2 2 3 2 2 0 2 2 2 2 1 3 3 5 7 7 6 6 7 7 7 10 11 11 12 15 19 20 20 21 23 24 24 24 24 24 25 25 26 27 28
9 9 10 11 12 13 14 16 21 16 13 12 12 12 11 10 9 8 8 10 8 7 5 5 5 5 6 7 7 7 6 6 5 5 5 3 3 2 1 1 2 1 2 1 1 3 5 6 7 8 7 7 7 7 7 9 10 11 15 19 19 19 20 22 23 24 24 23 24 24 25 25 27 28
9 10 11 11 11 12 13 17 21 20 16 12 12 12 11 10 9 8 6 11 10 8 6 6 8 9 10 10 10 10 10 7 7 5 4 4 4 3 2 1 2 2 3 2 2 2 5 5 7 10 8 7 8 7 5 5 8 14 18 17 16 17 19 21 23 24 23 23 23 24 25 26 27 30
9 10 14 12 11 12 12 18 22 22 17 12 12 11 11 11 10 9 8 7 7 9 7 8 8 10 10 11 11 11 11 11 8 5 4 4 5 3 2 2 2 2 2 2 2 1 3 3 5 8 9 8 4 5 3 4 8 14 14 15 15 15 17 21 23 22 22 22 22 24 25 25 26 18
9 9 12 17 13 13 13 21 23 23 18 10 10 10 10 11 11 10 11 10 11 10 9 8 9 8 10 10 9 8 12 12 9 5 4 4 4 3 3 2 1 2 3 4 2 1 2 3 4 5 9 5 2 2 1 4 6 7 8 10 10 15 19 20 21 21 20 21 22 24 24 24 23 14
10 10 10 15 21 18 18 20 23 23 22 10 8 10 11 11 12 10 11 11 11 11 10 10 10 8 8 9 8 8 8 8 7 5 4 4 4 3 3 3 3 2 0 4 4 2 1 1 1 2 1 4 6 2 5 5 5 7 7 8 8 14 16 17 16 20 19 19 22 22 23 21 21 14
10 10 11 10 19 22 20 21 24 24 25 18 10 13 13 13 11 12 10 12 15 11 11 10 8 7 6 7 6 7 8 7 6 5 5 4 4 4 4 4 4 3 2 4 4 2 1 1 1 1 3 4 7 9 7 6 6 6 6 6 9 9 9 10 9 11 13 18 19 21 20 20 23 16
11 11 10 10 17 25 23 23 24 26 25 26 13 16 18 15 18 13 9 11 12 9 8 7 6 6 6 6 6 6 6 6 6 6 5 5 5 3 4 4 4 3 3 4 5 3 2 2 2 2 3 4 7 6 9 7 7 5 4 6 7 8 8 9 9 10 10 10 10 13 19 24 19 18
10 9 10 10 18 25 24 23 25 25 27 24 18 20 21 18 19 15 9 9 9 7 7 7 7 7 7 7 7 6 6 6 6 6 5 5 5 4 2 1 1 2 1 4 3 3 3 2 2 3 4 4 7 7 6 5 6 7 9 7 7 8 8 7 8 10 10 10 11 19 20 17 16 16
9 8 9 8 19 23 25 25 25 25 24 19 25 23 23 22 19 10 8 7 8 7 7 8 7 7 7 6 7 7 6 6 7 6 5 5 5 4 3 2 1 1 1 1 2 3 4 3 3 4 4 4 5 6 8 6 6 6 9 10 9 7 5 6 7 9 9 10 10 10 10 11 10 10
7 9 12 15 19 22 23 25 24 22 25 27 24 25 24 22 13 8 9 8 7 8 9 9 7 7 8 8 6 6 7 7 6 6 5 4 4 3 3 1 1 1 1 2 3 3 4 4 4 4 5 6 6 6 5 8 7 8 7 9 9 7 9 6 6 8 10 9 9 9 9 10 10 9
12 16 17 18 19 19 19 16 15 13 15 25 27 27 25 16 13 8 9 8 10 9 8 8 8 8 7 6 6 7 7 7 6 7 6 5 3 3 2 2 3 4 3 3 3 4 4 4 5 5 5 7 7 8 7 6 9 8 7 7 9 11 6 4 7 8 9 10 10 10 10 10 10 9
11 13 14 13 17 15 22 21 17 16 15 16 17 17 14 13 13 7 9 9 9 9 7 6 7 5 6 5 6 6 7 7 6 6 6 6 5 5 4 3 3 3 3 4 4 4 4 4 5 5 6 6 6 9 7 5 9 9 9 7 6 7 8 8 7 8 9 11 11 11 9 8 8 8
11 9 10 14 12 12 12 14 12 11 11 11 12 14 13 11 11 12 15 12 10 11 11 10 5 5 6 7 7 6 6 6 6 6 6 6 6 5 5 3 5 4 3 3 3 4 4 4 4 5 7 7 7 6 4 5 7 8 9 9 7 7 7 7 8 7 8 11 12 10 9 8 9 8
9 8 8 9 11 11 12 12 12 12 13 14 12 14 12 11 10 11 13 14 12 13 11 9 9 8 7 7 7 6 6 6 6 6 5 5 6 5 5 5 4 4 4 4 3 4 5 6 7 7 7 8 9 8 5 6 6 7 7 7 7 7 6 6 7 8 9 9 10 10 12 10 7 8
8 9 10 11 12 12 12 12 12 13 12 13 13 12 14 11 10 12 13 14 12 11 13 12 9 8 8 8 8 8 7 6 5 6 7 6 6 6 6 5 5 4 3 3 3 2 3 4 5 7 9 10 10 10 9 8 8 6 6 6 7 8 7 6 7 8 8 8 11 12 11 12 10 8
12 10 11 11 11 12 11 12 13 12 13 14 14 14 12 12 11 12 13 13 10 11 11 11 9 7 9 9 9 9 8 8 6 6 5 5 6 6 6 6 5 5 4 4 3 3 2 2 3 4 5 6 5 9 17 14 6 8 6 6 5 7 8 6 7 8 8 8 7 10 12 11 12 9
12 10 13 14 14 11 12 12 12 13 13 13 12 11 13 12 12 13 13 12 13 11 11 9 11 9 9 9 8 7 7 6 7 7 7 7 7 6 5 6 5 4 3 4 3 3 2 2 2 2 2 3 4 3 2 20 20 7 5 6 5 6 7 8 7 7 7 7 8 9 11 12 13 13
15 12 14 14 15 16 13 12 12 13 12 12 11 11 8 9 11 9 9 11 13 9 11 8 8 8 8 8 5 6 5 8 8 7 7 6 6 6 5 5 3 4 4 3 3 3 3 3 3 1 1 3 3 5 2 5 17 21 8 7 7 6 8 9 9 8 7 7 9 8 9 11 12 13
15 15 13 15 17 14 12 12 11 12 13 12 12 9 7 6 8 10 10 12 12 9 10 10 10 13 9 6 8 8 7 7 6 7 6 7 8 7 7 7 6 5 5 3 3 3 3 3 3 2 1 1 3 5 4 1 1 7 14 9 6 7 6 9 9 9 10 8 9 9 10 11 12 11
15 15 16 15 15 16 15 13 11 12 11 11 11 9 7 8 8 9 11 12 11 9 8 8 10 11 11 10 10 8 9 8 8 8 7 8 8 8 7 7 6 5 4 4 3 3 4 4 4 4 4 2 2 2 2 4 5 1 3 8 7 8 8 7 9 10 9 10 10 11 11 11 14 21
14 14 14 15 15 14 14 12 12 11 11 12 11 8 8 9 9 8 8 9 12 11 8 9 9 11 9 10 10 7 6 10 9 8 8 8 7 7 7 6 6 6 5 4 4 5 5 5 5 5 4 3 1 3 3 6 10 11 9 13 20 14 8 7 8 9 10 9 10 12 13 10 10 10
14 15 15 13 12 13 12 11 11 10 11 10 9 9 9 8 9 9 10 11 9 9 9 9 11 12 7 10 9 10 10 9 7 7 7 7 6 5 6 6 5 6 6 5 5 5 6 4 3 6 5 1 1 2 3 4 5 5 3 1 6 10 10 9 7 8 9 10 9 10 12 11 11 12
14 14 13 13 12 11 10 9 9 10 9 10 10 9 8 9 10 15 12 15 13 10 7 8 8 7 8 8 10 13 9 9 9 8 6 8 7 7 7 7 7 7 7 7 7 5 3 5 5 4 3 2 1 1 3 4 6 6 7 6 3 8 10 10 12 11 9 8 8 9 9 9 8 10
13 12 13 12 11 10 10 9 9 10 10 9 10 9 8 8 8 12 10 10 9 9 9 8 8 9 8 8 9 11 10 9 8 8 10 9 8 9 9 9 8 8 7 4 3 5 5 4 4 3 4 3 4 3 4 4 4 6 8 8 8 7 5 8 9 11 12 11 8 6 6 8 9 8
11 12 11 10 11 10 9 9 10 10 10 9 9 8 10 10 11 12 11 11 12 11 9 9 9 9 8 9 9 10 8 9 9 12 12 12 10 8 8 7 8 6 6 5 4 4 4 4 4 4 4 5 5 4 6 4 5 5 6 7 7 7 10 10 6 5 6 7 8 8 10 11 13 16
11 11 11 11 11 10 10 10 10 9 9 9 10 10 9 10 11 11 10 9 9 8 10 9 8 8 8 8 10 11 10 12 14 12 10 7 7 7 8 6 7 6 7 6 6 5 5 4 4 4 3 4 4 5 4 4 5 5 6 7 8 6 5 6 9 10 10 8 5 9 13 14 16 18
Wind_Direction
134 135 142 131 132 133 123 128 144 135 144 152 163 170 168 160 145 166 183 192 179 180 184 177 162 168 168 140 127 142 97 71 22 31 18 11 14 5 3 9 14 15 15 11 7 3 0 357 356 356 357 355 358 2 -0 1 358 355 356 354 352 350 347 344 341 340 338 336 337 336 336 334 332 331
138 133 131 136 132 126 130 119 115 139 143 151 164 169 340 289 186 161 173 166 173 161 178 188 155 160 164 141 130 112 107 87 23 47 33 1 13 353 6 11 12 15 13 10 8 5 1 358 355 355 356 356 360 1 4 5 359 356 355 353 350 348 345 342 340 338 337 336 336 337 334 331 331 331
140 140 138 133 123 125 114 111 112 119 136 134 134 105 207 250 350 177 160 139 134 152 167 171 149 150 150 148 141 142 125 92 45 51 14 7 353 334 22 14 12 11 11 10 9 7 2 359 355 357 357 357 2 5 3 360 357 355 353 350 348 345 343 341 339 337 335 335 335 334 333 332 331 330
139 136 135 134 133 133 123 119 122 121 109 128 139 142 138 82 41 211 194 147 134 154 156 148 148 149 148 151 153 146 126 115 111 31 348 356 333 351 3 23 13 7 7 6 6 6 4 359 359 360 -0 360 4 3 0 358 357 354 350 348 346 345 343 341 338 337 335 334 333 332 333 332 331 330
139 141 133 132 130 134 132 130 128 128 124 126 122 121 125 120 106 171 146 123 127 121 124 143 149 152 156 158 150 159 143 148 118 184 346 331 352 347 341 342 22 5 2 1 1 3 2 2 2 2 2 1 2 1 358 356 353 351 348 346 346 344 341 339 337 334 332 332 332 333 333 332 331 329
145 143 140 138 138 140 132 136 139 135 142 142 135 132 134 129 115 51 127 130 141 143 149 149 142 153 166 163 145 161 154 155 147 251 321 310 330 342 333 333 8 359 354 351 354 357 0 2 2 2 4 3 3 360 358 354 351 349 348 348 346 342 340 338 334 331 331 331 331 332 332 331 331 329
149 144 142 145 144 143 140 142 139 143 144 140 132 127 125 122 111 91 110 139 135 145 152 155 158 164 171 177 155 149 160 150 145 215 234 291 309 318 328 324 335 349 341 338 342 350 357 359 359 3 3 3 2 359 356 352 350 348 347 348 343 339 338 335 332 331 330 330 330 332 331 330 330 330
154 151 146 152 154 153 150 151 152 157 148 143 137 130 126 122 118 108 104 119 137 147 144 167 165 164 166 168 160 157 164 173 180 185 228 239 276 296 304 310 300 327 321 318 327 342 350 355 359 2 2 2 1 358 353 351 350 349 347 343 340 339 336 333 332 331 330 330 330 330 331 331 330 329
159 158 158 156 160 164 158 159 162 160 156 151 148 143 139 135 128 126 125 125 139 147 150 150 161 159 169 163 165 170 183 177 182 182 201 231 270 304 292 273 271 290 298 297 313 332 343 353 357 359 1 1 359 355 352 352 353 349 344 340 339 337 335 333 332 331 330 329 330 331 331 330 329 327
165 162 160 162 168 172 170 166 163 162 162 159 156 151 147 141 139 137 136 139 148 151 147 152 157 173 173 172 179 169 188 191 188 183 183 198 230 281 290 274 276 307 309 321 329 333 339 348 349 355 355 356 356 353 352 352 352 347 342 341 338 336 335 333 332 331 329 329 330 331 331 330 328 327
167 166 163 169 176 178 175 168 167 167 167 166 162 159 152 152 150 147 148 151 151 154 151 157 166 168 178 183 172 170 183 204 204 192 188 199 201 245 271 288 292 288 302 291 300 313 324 330 338 343 347 353 355 354 352 352 351 347 343 340 338 337 334 332 331 330 329 329 331 331 330 330 328 327
169 169 171 176 181 183 179 174 171 171 168 165 165 165 160 160 157 153 151 154 157 157 161 165 167 173 169 177 167 151 183 193 184 172 192 204 202 246 273 270 300 321 306 314 313 304 320 331 332 339 345 357 353 354 352 350 348 345 341 338 338 334 332 330 328 329 330 331 332 332 331 330 328 327
173 175 178 182 185 187 181 179 174 174 169 166 167 167 166 163 161 155 157 160 161 163 165 166 166 169 178 183 174 184 191 198 176 133 163 216 203 242 265 239 196 333 324 312 307 319 350 338 339 341 347 356 349 352 352 347 343 339 336 337 335 333 330 330 330 331 332 333 333 332 331 329 327 326
177 178 179 183 182 174 169 172 174 170 171 180 175 167 167 167 166 163 163 167 171 169 173 175 171 179 188 186 188 189 174 145 136 169 188 203 189 233 259 224 158 72 345 335 327 329 6 343 331 345 344 351 349 347 344 342 335 333 335 336 335 332 330 331 332 331 332 333 333 332 330 328 326 326
174 177 179 175 168 167 167 174 176 173 175 170 160 164 168 171 171 165 168 174 174 176 178 172 178 187 185 182 176 177 161 160 172 184 191 187 208 216 310 268 117 102 19 347 324 321 2 350 336 338 342 345 343 340 334 330 331 333 335 334 332 331 332 332 331 330 332 333 333 331 329 328 326 327
172 174 174 175 169 182 181 181 181 183 181 174 166 163 165 170 180 197 186 173 173 180 178 175 188 187 189 170 172 169 162 171 171 182 187 190 180 184 247 283 309 22 29 345 326 312 334 354 329 331 339 339 336 330 322 323 325 331 333 332 332 332 332 332 330 330 332 333 331 330 329 328 327 327
174 172 169 170 169 174 176 181 185 184 181 180 175 168 170 178 188 194 190 198 192 177 182 180 183 191 178 170 180 166 161 156 180 172 185 176 169 178 236 289 321 352 12 334 326 312 318 350 335 325 333 342 332 322 320 317 321 328 331 331 330 331 332 331 329 330 332 332 331 330 329 328 327 327
177 174 170 172 174 174 176 186 185 183 179 177 177 180 183 187 194 202 198 189 179 193 189 184 186 178 174 179 152 148 155 174 187 187 181 160 174 192 204 349 325 328 3 2 327 302 327 359 332 319 326 343 324 314 306 310 315 322 328 329 331 331 330 330 329 329 330 331 332 330 329 329 328 328
180 177 174 178 180 180 182 187 184 181 180 177 179 181 185 189 188 193 190 189 185 188 194 191 182 157 152 141 141 151 165 179 177 175 135 112 105 98 341 278 241 301 124 55 313 288 326 338 321 310 326 329 317 309 307 305 306 315 325 329 330 329 329 328 326 328 331 333 332 329 329 329 328 328
184 181 181 182 186 185 186 186 184 182 177 176 177 180 184 187 186 191 189 182 184 184 183 182 158 147 148 152 156 161 164 157 138 114 103 108 134 158 202 234 172 211 128 92 284 286 308 328 316 307 316 316 309 311 303 297 302 312 323 330 329 326 325 323 326 330 332 333 330 328 328 328 329 329
186 189 187 186 186 186 189 184 183 181 177 176 179 182 183 183 181 179 164 175 171 169 165 143 146 147 154 159 163 165 167 157 152 141 138 174 174 184 188 194 176 218 131 277 199 291 297 325 328 310 308 312 295 291 286 298 312 319 326 329 324 323 322 324 328 330 332 331 329 328 328 329 331 331
194 195 189 186 188 187 189 181 184 183 179 179 182 183 179 175 178 173 162 162 175 175 167 169 168 165 165 169 171 173 174 165 163 165 180 172 168 188 198 208 192 231 214 167 157 230 273 331 334 316 305 293 237 231 261 312 319 322 323 323 321 320 324 326 326 328 331 331 329 328 329 331 332 331
191 190 186 190 191 190 187 183 187 187 183 179 178 168 167 181 185 182 169 171 176 173 176 181 176 175 173 170 170 173 175 174 179 196 196 172 177 181 189 191 229 244 183 151 171 224 284 12 338 5 329 328 289 170 139 319 313 314 317 319 317 322 327 325 325 327 330 331 329 327 329 332 334 327
194 189 187 194 199 193 189 188 190 192 190 184 168 167 185 185 191 176 171 175 177 176 176 173 169 159 153 164 168 171 168 172 188 196 194 189 183 179 178 188 217 253 103 150 162 158 299 133 312 2 342 308 311 300 330 319 321 316 315 314 312 323 326 325 323 322 325 328 326 325 327 328 330 324
188 189 191 190 198 198 194 192 194 196 198 193 180 189 198 195 179 159 164 178 179 177 171 162 151 147 154 163 170 178 178 179 180 189 185 187 188 177 182 184 201 227 206 129 132 136 190 121 293 281 266 252 271 298 300 316 309 307 305 301 310 315 319 317 313 312 318 321 321 321 321 326 326 325
200 197 189 187 190 197 198 196 197 199 201 200 191 202 199 184 169 163 165 176 181 178 156 152 152 155 164 172 180 183 181 179 178 177 175 178 179 185 189 196 209 210 198 137 129 139 142 260 199 236 269 267 276 267 299 309 306 302 306 304 300 302 309 304 308 309 315 318 317 318 318 321 321 317
197 193 189 187 185 195 198 200 202 204 204 205 208 204 198 190 178 162 164 166 170 162 158 155 166 167 171 175 182 184 184 179 173 176 171 169 166 163 156 144 247 243 79 125 142 166 180 201 172 200 258 276 285 292 268 285 313 327 310 308 307 304 299 300 306 308 310 315 309 313 314 314 314 312
187 183 185 175 180 193 199 202 205 206 206 209 210 206 201 197 192 171 163 165 172 165 162 175 178 179 179 178 185 187 179 169 164 165 154 146 151 155 158 159 208 260 266 201 176 186 186 195 209 211 222 247 267 282 297 292 283 297 306 306 304 295 297 305 296 297 304 307 308 312 311 313 316 316
184 181 180 176 186 196 201 205 207 210 212 213 213 210 206 200 197 176 167 168 160 177 182 186 185 173 186 185 183 161 151 138 135 133 131 118 103 80 91 73 290 271 208 227 208 204 194 193 203 205 220 229 242 258 259 279 301 293 295 307 310 315 313 294 290 306 304 303 307 307 303 302 304 300
179 184 191 189 193 198 203 205 207 208 209 214 213 213 206 202 203 170 169 168 178 185 184 184 183 184 166 171 154 139 142 152 168 159 155 151 154 154 169 200 230 213 213 197 196 197 188 196 197 203 231 239 236 254 255 278 285 284 288 275 277 294 273 290 307 301 303 309 309 305 297 290 285 290
194 187 186 192 195 198 201 204 208 210 209 213 216 218 210 201 203 163 170 177 180 184 174 176 187 156 156 130 127 156 165 175 169 164 161 162 165 152 170 186 227 227 194 164 190 190 193 196 201 198 224 244 243 240 251 254 273 286 283 273 278 289 300 305 299 304 310 307 306 297 292 289 289 283
195 184 179 187 196 199 204 208 211 212 211 207 208 213 211 201 197 178 182 181 191 200 199 197 132 131 145 165 172 160 175 179 159 158 164 168 154 155 153 183 221 211 210 185 186 190 200 206 207 219 226 237 252 264 245 239 250 262 275 274 269 271 279 295 303 307 316 315 308 305 298 294 297 296
183 181 179 187 196 198 201 203 206 207 212 215 207 206 210 202 187 177 185 191 189 192 193 187 172 171 160 171 166 166 173 176 161 161 162 166 151 152 178 205 207 182 201 211 190 184 188 206 215 227 234 237 239 250 270 291 259 222 236 274 299 293 300 300 309 314 320 313 306 307 307 305 302 300
179 182 188 193 197 198 198 199 202 203 205 210 208 206 206 203 186 189 192 197 188 182 196 195 173 170 166 170 168 177 178 161 156 168 168 167 161 165 185 197 214 200 205 222 199 196 194 211 226 230 232 236 239 234 221 225 257 267 280 300 289 297 302 316 314 314 311 317 316 312 312 313 310 308
194 187 196 198 197 201 200 200 202 198 199 207 207 205 198 202 190 189 194 197 183 186 191 195 182 168 172 174 170 178 175 164 156 157 173 161 171 187 188 196 204 190 191 206 210 191 203 246 254 266 228 211 228 232 215 210 240 258 286 277 282 293 305 314 315 316 317 311 318 312 308 302 304 311
203 186 200 207 209 200 202 204 199 198 201 201 200 196 201 200 191 191 198 187 189 190 188 179 185 181 183 182 173 169 157 152 158 164 173 177 180 188 191 202 201 189 182 204 192 166 189 232 241 275 304 279 277 276 190 206 205 234 265 291 301 305 306 317 313 308 313 320 319 317 312 314 309 308
214 203 201 208 211 211 203 199 197 198 197 200 199 195 184 187 193 190 184 171 193 186 185 170 172 171 181 178 155 161 151 161 174 170 176 174 174 176 180 194 198 197 199 205 173 161 185 210 208 229 292 306 313 310 297 125 215 220 235 282 304 315 318 317 320 319 318 319 314 311 307 305 299 298
214 213 207 207 213 210 199 203 200 201 205 204 203 198 184 179 180 188 177 190 197 187 187 190 186 196 188 176 158 170 172 178 165 170 181 170 172 186 190 190 182 189 197 187 174 183 185 207 207 192 219 258 313 296 320 152 183 222 227 239 281 305 310 307 316 321 318 318 311 307 310 297 292 291
212 211 212 210 211 217 212 202 200 201 198 196 204 195 174 171 168 174 185 193 194 184 176 181 186 192 183 179 185 164 164 164 182 187 178 185 184 182 179 184 178 167 171 193 183 188 193 208 205 197 198 208 226 297 312 310 279 245 203 229 272 286 284 294 305 310 313 315 313 309 293 279 278 287
213 213 214 214 213 213 218 203 201 199 194 198 199 189 166 179 174 176 179 181 193 195 175 187 183 191 179 181 184 167 172 182 183 177 177 180 178 185 178 172 176 163 175 189 195 197 201 210 199 200 197 213 319 5 321 278 278 279 265 256 246 234 251 296 299 306 305 306 310 310 308 312 312 317
211 213 215 211 207 204 201 195 193 191 197 190 190 192 186 175 178 183 174 179 185 182 178 189 190 191 163 175 175 171 182 189 188 182 172 180 175 181 179 162 178 173 176 196 198 205 204 206 141 101 86 53 15 302 274 269 274 286 288 249 186 212 252 275 281 286 290 301 307 306 311 315 319 321
206 211 212 210 207 204 192 187 183 186 189 190 193 192 185 179 196 195 193 195 197 197 177 185 175 168 167 172 179 193 192 185 184 180 169 174 175 176 180 182 188 173 184 198 197 196 108 90 105 111 124 157 198 208 252 250 280 295 303 305 269 227 236 263 281 282 284 291 303 310 313 314 326 316
202 205 206 206 208 203 188 182 184 185 191 187 187 184 177 181 181 188 190 186 187 190 189 185 176 181 172 173 177 190 188 192 175 175 178 181 174 176 182 192 194 180 179 180 130 111 129 141 134 153 171 186 208 209 245 262 273 291 298 301 308 315 279 245 264 282 284 284 283 284 298 305 319 318
197 199 205 203 206 197 184 184 187 186 185 184 178 167 181 181 186 190 188 183 184 190 180 178 181 179 170 175 170 188 195 190 177 186 182 190 184 179 179 176 176 167 168 175 143 154 143 161 178 177 179 202 194 204 235 252 269 265 281 292 301 309 315 324 317 269 260 251 251 286 311 307 296 290
199 199 202 202 206 201 187 184 183 178 175 177 178 181 180 181 189 190 185 177 180 173 182 181 176 176 168 165 170 192 198 196 200 200 192 166 174 183 183 162 169 168 179 170 164 165 167 174 176 187 210 215 204 217 231 246 265 291 280 285 286 292 304 324 329 332 331 322 287 310 317 316 316 313